Location: Ermatingen
(47.6706°N, 9.0857°E)
Time: 08:16:51
(UTC+00:00)

Cosmos 2278 Rocket - Pass Details

Date: 18 September 2020
Orbit: 841 x 845 km, 71.0° (Epoch: 27 October)

Event Time Altitude Azimuth Distance (km) Brightness Sun altitude
Exits shadow 23:04:02 20° 332° (NNW) 1,873 4.4 -40.8°
Drops below altitude 10° 23:07:13 10° 6° (N) 2,471 5.3 -40.9°
Sets 23:10:19 0° 22° (NNE) 3,409 6.1 -40.9°
